GPS BIIF-12

Last updated on Fri Apr 12 2024 01:02:26 GMT+0100 (British Summer Time)

1 41328U 16007A 24102.13139419 .00000027 00000+0 00000+0 0 9999 2 41328 55.0980 121.1136 0079164 238.0212 121.2506 2.00565152 59857
UTC large
Height (km)
Speed (km/s)
/
Latitude / Longitude
Inclination (degrees)
Orbital Period (minutes)
Azimuth
Elevation
Range (km)
Doppler Factor

Next 0 passes for location: London (51.5072 / 0.1276)

Sorry there are no passes over London.